| time (UTC) | temp C | wind direction | speed KPH | gust KPH | rain 1hr cm | rain 24hr cm | rain mn cm | humidity % | barometer mb |
| 20260508023524 | 11 | 0 | 0.0 | 0.0 | 0.00 | 0.84 | 0.53 | 80 | 1009.9 |
| 20260508023035 | 11 | 0 | 0.0 | 0.0 | 0.00 | 0.84 | 0.53 | 79 | 1009.8 |
| 20260508022528 | 11 | 0 | 0.0 | 0.0 | 0.00 | 0.84 | 0.53 | 79 | 1009.8 |
| 20260508022025 | 11 | 0 | 0.0 | 0.0 | 0.00 | 0.84 | 0.53 | 78 | 1009.9 |
| 20260508021542 | 11 | 0 | 0.0 | 0.0 | 0.00 | 0.84 | 0.53 | 78 | 1009.9 |
| 20260508021026 | 11 | 0 | 0.0 | 0.0 | 0.00 | 0.84 | 0.53 | 78 | 1009.9 |
| 20260508020523 | 12 | 0 | 0.0 | 0.0 | 0.00 | 0.84 | 0.53 | 77 | 1009.9 |
| 20260508020048 | 12 | 0 | 0.0 | 0.0 | 0.00 | 0.84 | 0.53 | 77 | 1009.8 |
| 20260508015520 | 12 | 0 | 0.0 | 3.2 | 0.00 | 0.84 | 0.53 | 76 | 1009.8 |
| 20260508015020 | 12 | 0 | 0.0 | 3.2 | 0.00 | 0.84 | 0.53 | 76 | 1009.7 |
| 20260508014540 | 12 | 0 | 0.0 | 8.0 | 0.00 | 0.84 | 0.53 | 76 | 1009.6 |
| 20260508014022 | 12 | 0 | 0.0 | 8.0 | 0.00 | 0.84 | 0.53 | 75 | 1009.6 |
| 20260508013522 | 12 | 147 | 1.6 | 8.0 | 0.00 | 0.84 | 0.53 | 75 | 1009.6 |
| 20260508013043 | 12 | 166 | 1.6 | 8.0 | 0.00 | 0.84 | 0.53 | 74 | 1009.6 |
| 20260508012525 | 12 | 0 | 1.6 | 8.0 | 0.00 | 0.84 | 0.53 | 73 | 1009.5 |
| 20260508012023 | 12 | 0 | 0.0 | 6.4 | 0.00 | 0.84 | 0.53 | 72 | 1009.6 |
| 20260508011537 | 12 | 157 | 1.6 | 6.4 | 0.00 | 0.84 | 0.53 | 71 | 1009.4 |
| 20260508011022 | 12 | 154 | 0.0 | 4.8 | 0.00 | 0.84 | 0.53 | 70 | 1009.4 |
| 20260508010523 | 12 | 0 | 0.0 | 6.4 | 0.00 | 0.84 | 0.53 | 68 | 1009.5 |
| 20260508010050 | 12 | 0 | 0.0 | 8.0 | 0.00 | 0.84 | 0.53 | 67 | 1009.5 |
| 20260508005523 | 13 | 132 | 3.2 | 9.7 | 0.00 | 0.84 | 0.53 | 66 | 1009.4 |
| 20260508005023 | 13 | 170 | 3.2 | 12.9 | 0.00 | 0.84 | 0.53 | 64 | 1009.3 |
| 20260508004542 | 13 | 163 | 4.8 | 12.9 | 0.00 | 0.84 | 0.53 | 63 | 1009.4 |
| 20260508004021 | 13 | 177 | 4.8 | 12.9 | 0.00 | 0.84 | 0.53 | 62 | 1009.3 |
| 20260508003522 | 13 | 165 | 3.2 | 12.9 | 0.00 | 0.84 | 0.53 | 60 | 1009.2 |
| 20260508003041 | 13 | 0 | 0.0 | 0.0 | 0.00 | 0.84 | 0.53 | 57 | 1009.0 |
| 20260508002522 | 13 | 0 | 0.0 | 0.0 | 0.00 | 0.84 | 0.53 | 57 | 1009.0 |
| 20260508002024 | 13 | 0 | 0.0 | 0.0 | 0.00 | 0.84 | 0.53 | 56 | 1008.9 |
| 20260508001541 | 13 | 0 | 0.0 | 0.0 | 0.00 | 0.84 | 0.53 | 55 | 1008.8 |
| 20260508001024 | 13 | 0 | 0.0 | 0.0 | 0.00 | 0.84 | 0.53 | 54 | 1008.8 |
| 20260508000524 | 14 | 0 | 0.0 | 0.0 | 0.00 | 0.84 | 0.53 | 53 | 1008.7 |
| 20260508000041 | 14 | 0 | 0.0 | 0.0 | 0.00 | 0.84 | 0.53 | 52 | 1008.7 |
| 20260507235524 | 15 | 0 | 0.0 | 0.0 | 0.00 | 0.84 | 0.53 | 50 | 1008.7 |
| 20260507235025 | 15 | 0 | 0.0 | 0.0 | 0.00 | 0.84 | 0.53 | 48 | 1008.7 |
| 20260507234537 | 15 | 0 | 0.0 | 0.0 | 0.00 | 0.84 | 0.53 | 45 | 1008.7 |
| 20260507234021 | 15 | 0 | 0.0 | 0.0 | 0.00 | 0.84 | 0.53 | 46 | 1008.8 |
| 20260507233524 | 15 | 0 | 0.0 | 0.0 | 0.00 | 0.84 | 0.53 | 45 | 1008.6 |
| 20260507233035 | 15 | 0 | 0.0 | 0.0 | 0.00 | 0.84 | 0.53 | 46 | 1008.5 |
| 20260507232522 | 15 | 0 | 0.0 | 0.0 | 0.00 | 0.84 | 0.53 | 45 | 1008.5 |
| 20260507232022 | 15 | 0 | 0.0 | 0.0 | 0.00 | 0.84 | 0.53 | 45 | 1008.4 |
| 20260507231546 | 15 | 0 | 0.0 | 0.0 | 0.00 | 0.84 | 0.53 | 43 | 1008.2 |
| 20260507231023 | 16 | 0 | 0.0 | 0.0 | 0.00 | 0.84 | 0.53 | 42 | 1008.3 |
| 20260507230524 | 16 | 0 | 0.0 | 4.8 | 0.00 | 0.84 | 0.53 | 43 | 1008.3 |
| 20260507230044 | 16 | 0 | 0.0 | 4.8 | 0.00 | 0.84 | 0.53 | 42 | 1008.2 |
| 20260507225524 | 16 | 267 | 1.6 | 4.8 | 0.00 | 0.84 | 0.53 | 41 | 1008.3 |
| 20260507225024 | 16 | 0 | 0.0 | 3.2 | 0.00 | 0.84 | 0.53 | 41 | 1008.3 |
| 20260507224537 | 16 | 327 | 0.0 | 4.8 | 0.00 | 0.84 | 0.53 | 41 | 1008.2 |
| 20260507224024 | 17 | 0 | 0.0 | 6.4 | 0.00 | 0.84 | 0.53 | 41 | 1008.3 |
| 20260507223524 | 16 | 0 | 0.0 | 8.0 | 0.00 | 0.84 | 0.53 | 42 | 1008.3 |
| 20260507223035 | 16 | 310 | 1.6 | 8.0 | 0.00 | 0.84 | 0.53 | 40 | 1008.3 |
| 20260507222522 | 16 | 299 | 0.0 | 6.4 | 0.00 | 0.84 | 0.53 | 41 | 1008.4 |
| 20260507222024 | 17 | 308 | 1.6 | 6.4 | 0.00 | 0.84 | 0.53 | 39 | 1008.3 |
| 20260507221536 | 17 | 295 | 1.6 | 11.3 | 0.00 | 0.84 | 0.53 | 38 | 1008.4 |
| 20260507221022 | 17 | 273 | 1.6 | 11.3 | 0.00 | 0.84 | 0.53 | 39 | 1008.3 |
| 20260507220521 | 17 | 0 | 3.2 | 11.3 | 0.00 | 0.84 | 0.53 | 38 | 1008.4 |
| 20260507220043 | 17 | 302 | 1.6 | 14.5 | 0.00 | 0.84 | 0.53 | 37 | 1008.4 |
| 20260507215522 | 17 | 286 | 3.2 | 14.5 | 0.00 | 0.84 | 0.53 | 37 | 1008.4 |
| 20260507215022 | 17 | 299 | 0.0 | 6.4 | 0.00 | 0.84 | 0.53 | 38 | 1008.4 |
| 20260507214547 | 17 | 0 | 1.6 | 4.8 | 0.00 | 0.84 | 0.53 | 40 | 1008.4 |
| 20260507214024 | 17 | 326 | 1.6 | 9.7 | 0.00 | 0.84 | 0.53 | 40 | 1008.5 |
| 20260507213527 | 17 | 17 | 1.6 | 9.7 | 0.00 | 0.84 | 0.53 | 39 | 1008.6 |
| 20260507213043 | 17 | 71 | 3.2 | 12.9 | 0.00 | 0.84 | 0.53 | 36 | 1008.4 |
| 20260507212524 | 17 | 0 | 3.2 | 12.9 | 0.00 | 0.84 | 0.53 | 36 | 1008.3 |
| 20260507212022 | 17 | 269 | 1.6 | 6.4 | 0.00 | 0.84 | 0.53 | 38 | 1008.3 |
| 20260507211540 | 17 | 269 | 1.6 | 9.7 | 0.00 | 0.84 | 0.53 | 38 | 1008.3 |
| 20260507211021 | 17 | 62 | 1.6 | 9.7 | 0.00 | 0.84 | 0.53 | 39 | 1008.2 |
| 20260507210522 | 17 | 309 | 0.0 | 9.7 | 0.00 | 0.84 | 0.53 | 39 | 1008.3 |
| 20260507210046 | 17 | 0 | 0.0 | 11.3 | 0.00 | 0.84 | 0.53 | 40 | 1008.3 |
| 20260507205526 | 17 | 284 | 0.0 | 19.3 | 0.00 | 0.84 | 0.53 | 37 | 1008.2 |
| 20260507205022 | 17 | 259 | 9.7 | 19.3 | 0.00 | 0.84 | 0.53 | 37 | 1008.2 |
| 20260507204541 | 17 | 302 | 1.6 | 6.4 | 0.00 | 0.84 | 0.53 | 40 | 1008.2 |
| 20260507204022 | 17 | 290 | 1.6 | 6.4 | 0.00 | 0.84 | 0.53 | 38 | 1008.2 |
| 20260507203523 | 17 | 178 | 1.6 | 11.3 | 0.00 | 0.84 | 0.53 | 42 | 1008.1 |
| 20260507203043 | 17 | 236 | 0.0 | 11.3 | 0.00 | 0.84 | 0.53 | 40 | 1008.3 |
| 20260507202522 | 17 | 294 | 3.2 | 14.5 | 0.00 | 0.84 | 0.53 | 41 | 1008.2 |
| 20260507202022 | 17 | 267 | 4.8 | 19.3 | 0.00 | 0.84 | 0.53 | 39 | 1008.5 |
| 20260507201543 | 18 | 260 | 1.6 | 19.3 | 0.00 | 0.84 | 0.53 | 41 | 1008.3 |
| 20260507201024 | 18 | 0 | 1.6 | 8.0 | 0.00 | 0.84 | 0.53 | 41 | 1008.3 |
| 20260507200524 | 18 | 293 | 1.6 | 8.0 | 0.00 | 0.84 | 0.53 | 39 | 1008.5 |
| 20260507200037 | 17 | 0 | 0.0 | 20.9 | 0.00 | 0.84 | 0.53 | 38 | 1008.4 |
| 20260507195522 | 17 | 0 | 1.6 | 20.9 | 0.00 | 0.84 | 0.53 | 37 | 1008.4 |
| 20260507195022 | 18 | 290 | 9.7 | 20.9 | 0.00 | 0.84 | 0.53 | 36 | 1008.5 |
| 20260507194536 | 18 | 319 | 1.6 | 11.3 | 0.00 | 0.84 | 0.53 | 40 | 1008.5 |
| 20260507194023 | 17 | 163 | 3.2 | 14.5 | 0.00 | 0.84 | 0.53 | 38 | 1008.6 |
| 20260507193522 | 17 | 273 | 4.8 | 14.5 | 0.00 | 0.84 | 0.53 | 41 | 1008.7 |
| 20260507193043 | 18 | 286 | 8.0 | 14.5 | 0.00 | 0.84 | 0.53 | 39 | 1008.6 |
| 20260507192521 | 17 | 296 | 4.8 | 12.9 | 0.00 | 0.84 | 0.53 | 41 | 1008.6 |
| 20260507192022 | 17 | 313 | 4.8 | 16.1 | 0.00 | 0.84 | 0.53 | 39 | 1008.7 |
| 20260507191542 | 17 | 246 | 1.6 | 16.1 | 0.00 | 0.84 | 0.53 | 40 | 1008.8 |
| 20260507191022 | 17 | 302 | 4.8 | 16.1 | 0.00 | 0.84 | 0.53 | 42 | 1009.0 |
| 20260507190522 | 17 | 82 | 3.2 | 12.9 | 0.00 | 0.84 | 0.53 | 42 | 1008.9 |
| 20260507190040 | 17 | 0 | 0.0 | 9.7 | 0.00 | 0.84 | 0.53 | 42 | 1008.9 |
| 20260507185523 | 17 | 155 | 1.6 | 9.7 | 0.00 | 0.84 | 0.53 | 40 | 1008.9 |
| 20260507185024 | 16 | 312 | 1.6 | 9.7 | 0.00 | 0.84 | 0.53 | 43 | 1009.1 |
| 20260507184535 | 16 | 243 | 4.8 | 9.7 | 0.00 | 0.84 | 0.53 | 41 | 1009.1 |
| 20260507184024 | 16 | 64 | 1.6 | 8.0 | 0.00 | 0.84 | 0.53 | 41 | 1009.2 |
| 20260507183526 | 17 | 97 | 1.6 | 12.9 | 0.00 | 0.84 | 0.53 | 44 | 1009.3 |
| 20260507183044 | 17 | 53 | 1.6 | 12.9 | 0.00 | 0.84 | 0.53 | 44 | 1009.3 |
| 20260507182522 | 17 | 279 | 3.2 | 12.9 | 0.00 | 0.84 | 0.53 | 42 | 1009.4 |
| 20260507182022 | 17 | 331 | 3.2 | 17.7 | 0.00 | 0.84 | 0.53 | 48 | 1009.4 |
| 20260507181544 | 17 | 305 | 6.4 | 20.9 | 0.00 | 0.84 | 0.53 | 41 | 1009.4 |
| 20260507181022 | 16 | 268 | 8.0 | 20.9 | 0.00 | 0.84 | 0.53 | 43 | 1009.3 |
| 20260507180524 | 17 | 292 | 3.2 | 20.9 | 0.00 | 0.84 | 0.53 | 39 | 1009.4 |
| 20260507180052 | 16 | 300 | 4.8 | 20.9 | 0.00 | 0.84 | 0.53 | 43 | 1009.5 |
| 20260507175525 | 16 | 313 | 4.8 | 16.1 | 0.00 | 0.84 | 0.53 | 45 | 1009.5 |
| 20260507175022 | 16 | 40 | 3.2 | 16.1 | 0.00 | 0.84 | 0.53 | 42 | 1009.6 |
| 20260507174538 | 16 | 313 | 3.2 | 17.7 | 0.00 | 0.84 | 0.53 | 43 | 1009.6 |
| 20260507174025 | 16 | 288 | 4.8 | 17.7 | 0.00 | 0.84 | 0.53 | 39 | 1009.8 |
| 20260507173524 | 16 | 334 | 1.6 | 16.1 | 0.00 | 0.84 | 0.53 | 46 | 1010.0 |
| 20260507173037 | 16 | 285 | 6.4 | 16.1 | 0.00 | 0.84 | 0.53 | 41 | 1010.2 |
| 20260507172524 | 16 | 286 | 3.2 | 16.1 | 0.00 | 0.84 | 0.53 | 47 | 1010.2 |
| 20260507172023 | 16 | 292 | 6.4 | 16.1 | 0.00 | 0.84 | 0.53 | 44 | 1010.2 |
| 20260507171541 | 16 | 300 | 3.2 | 14.5 | 0.00 | 0.84 | 0.53 | 45 | 1010.3 |
| 20260507171022 | 16 | 339 | 1.6 | 16.1 | 0.00 | 0.84 | 0.53 | 45 | 1010.3 |
| 20260507170524 | 16 | 61 | 1.6 | 16.1 | 0.00 | 0.84 | 0.53 | 49 | 1010.4 |
| 20260507170045 | 16 | 281 | 3.2 | 14.5 | 0.00 | 0.84 | 0.53 | 47 | 1010.4 |
| 20260507165522 | 16 | 300 | 4.8 | 12.9 | 0.00 | 0.86 | 0.53 | 50 | 1010.6 |
| 20260507165021 | 16 | 329 | 1.6 | 17.7 | 0.00 | 0.86 | 0.53 | 49 | 1010.4 |
| 20260507164548 | 15 | 300 | 6.4 | 17.7 | 0.00 | 0.86 | 0.53 | 47 | 1010.5 |
| 20260507164022 | 16 | 0 | 6.4 | 17.7 | 0.00 | 0.86 | 0.53 | 48 | 1010.8 |
| 20260507163521 | 16 | 71 | 3.2 | 14.5 | 0.00 | 0.86 | 0.53 | 48 | 1010.8 |
| 20260507163049 | 16 | 69 | 4.8 | 16.1 | 0.00 | 0.86 | 0.53 | 51 | 1010.8 |
| 20260507162521 | 16 | 0 | 3.2 | 16.1 | 0.00 | 0.86 | 0.53 | 55 | 1010.8 |
| 20260507162022 | 15 | 271 | 1.6 | 16.1 | 0.00 | 0.86 | 0.53 | 53 | 1010.9 |
| 20260507161544 | 15 | 299 | 6.4 | 17.7 | 0.00 | 0.86 | 0.53 | 49 | 1010.9 |
| 20260507161022 | 15 | 0 | 6.4 | 17.7 | 0.00 | 0.86 | 0.53 | 56 | 1011.0 |
| 20260507160522 | 15 | 0 | 3.2 | 19.3 | 0.00 | 0.86 | 0.53 | 58 | 1011.0 |
| 20260507160046 | 15 | 299 | 8.0 | 19.3 | 0.00 | 0.86 | 0.53 | 51 | 1011.1 |
| 20260507155522 | 15 | 313 | 6.4 | 16.1 | 0.00 | 0.89 | 0.53 | 50 | 1011.0 |
| 20260507155022 | 15 | 301 | 4.8 | 12.9 | 0.00 | 0.89 | 0.53 | 51 | 1011.2 |
| 20260507154535 | 15 | 310 | 3.2 | 17.7 | 0.00 | 0.89 | 0.53 | 53 | 1011.2 |
| 20260507154023 | 15 | 0 | 1.6 | 17.7 | 0.00 | 0.89 | 0.53 | 54 | 1011.4 |
| 20260507153522 | 15 | 304 | 8.0 | 17.7 | 0.00 | 0.89 | 0.53 | 53 | 1011.4 |
| 20260507153044 | 15 | 275 | 6.4 | 17.7 | 0.00 | 0.89 | 0.53 | 54 | 1011.6 |
| 20260507152522 | 15 | 325 | 4.8 | 16.1 | 0.00 | 0.89 | 0.53 | 57 | 1011.9 |
| 20260507152022 | 15 | 269 | 3.2 | 16.1 | 0.00 | 0.89 | 0.53 | 57 | 1011.8 |
| 20260507151538 | 13 | 0 | 1.6 | 12.9 | 0.00 | 0.89 | 0.53 | 58 | 1011.9 |
| 20260507151021 | 14 | 67 | 1.6 | 12.9 | 0.00 | 0.89 | 0.53 | 61 | 1011.8 |
| 20260507150524 | 14 | 269 | 1.6 | 11.3 | 0.00 | 0.89 | 0.53 | 62 | 1011.9 |
| 20260507150037 | 14 | 281 | 3.2 | 11.3 | 0.00 | 0.89 | 0.53 | 63 | 1012.0 |
| 20260507145521 | 14 | 297 | 3.2 | 14.5 | 0.00 | 0.89 | 0.53 | 60 | 1012.0 |
| 20260507145025 | 13 | 55 | 4.8 | 14.5 | 0.00 | 0.89 | 0.53 | 63 | 1012.0 |
| 20260507144541 | 13 | 317 | 6.4 | 14.5 | 0.00 | 0.89 | 0.53 | 64 | 1012.0 |
| 20260507144025 | 13 | 271 | 4.8 | 14.5 | 0.00 | 0.89 | 0.53 | 66 | 1012.1 |
| 20260507143521 | 12 | 278 | 4.8 | 14.5 | 0.00 | 0.89 | 0.53 | 66 | 1012.2 |
| 20260507143048 | 13 | 261 | 1.6 | 14.5 | 0.00 | 0.89 | 0.53 | 69 | 1012.3 |
| 20260507142523 | 13 | 30 | 3.2 | 14.5 | 0.00 | 0.89 | 0.53 | 71 | 1012.2 |
| 20260507142023 | 13 | 51 | 1.6 | 12.9 | 0.00 | 0.89 | 0.53 | 72 | 1012.3 |
| 20260507141545 | 12 | 307 | 3.2 | 17.7 | 0.00 | 0.89 | 0.53 | 73 | 1012.2 |
| 20260507141027 | 12 | 271 | 3.2 | 17.7 | 0.00 | 0.89 | 0.53 | 74 | 1012.4 |
| 20260507140527 | 12 | 319 | 4.8 | 16.1 | 0.00 | 0.89 | 0.53 | 74 | 1012.3 |
| 20260507140043 | 12 | 0 | 1.6 | 11.3 | 0.00 | 0.89 | 0.53 | 74 | 1012.2 |
| 20260507135524 | 12 | 0 | 1.6 | 6.4 | 0.00 | 0.89 | 0.53 | 75 | 1012.2 |
| 20260507135024 | 12 | 0 | 0.0 | 11.3 | 0.00 | 0.89 | 0.53 | 76 | 1012.3 |
| 20260507134535 | 12 | 94 | 1.6 | 11.3 | 0.00 | 0.89 | 0.53 | 76 | 1012.3 |
| 20260507134021 | 11 | 323 | 3.2 | 11.3 | 0.00 | 0.89 | 0.53 | 79 | 1012.2 |
| 20260507133521 | 11 | 0 | 1.6 | 11.3 | 0.00 | 0.89 | 0.53 | 81 | 1012.3 |
| 20260507133036 | 11 | 294 | 4.8 | 11.3 | 0.00 | 0.89 | 0.53 | 80 | 1012.3 |
| 20260507132520 | 11 | 275 | 1.6 | 8.0 | 0.00 | 0.89 | 0.53 | 82 | 1012.2 |
| 20260507132021 | 11 | 278 | 0.0 | 12.9 | 0.00 | 0.89 | 0.53 | 85 | 1012.1 |
| 20260507131544 | 11 | 278 | 3.2 | 12.9 | 0.00 | 0.89 | 0.53 | 84 | 1012.2 |
| 20260507131024 | 11 | 297 | 0.0 | 11.3 | 0.00 | 0.89 | 0.53 | 85 | 1012.2 |
| 20260507130523 | 11 | 0 | 1.6 | 11.3 | 0.00 | 0.89 | 0.53 | 86 | 1012.2 |
| 20260507130051 | 10 | 294 | 3.2 | 11.3 | 0.00 | 0.89 | 0.53 | 89 | 1012.4 |
| 20260507125522 | 10 | 310 | 3.2 | 11.3 | 0.00 | 0.89 | 0.53 | 90 | 1012.1 |
| 20260507125021 | 10 | 290 | 1.6 | 8.0 | 0.00 | 0.89 | 0.53 | 90 | 1012.1 |
| 20260507124555 | 10 | 290 | 0.0 | 8.0 | 0.00 | 0.89 | 0.53 | 90 | 1012.3 |
| 20260507124021 | 10 | 294 | 1.6 | 8.0 | 0.00 | 0.89 | 0.53 | 90 | 1012.2 |
| 20260507123522 | 10 | 296 | 0.0 | 4.8 | 0.00 | 0.89 | 0.53 | 91 | 1012.2 |
| 20260507123036 | 10 | 0 | 0.0 | 4.8 | 0.00 | 0.89 | 0.53 | 91 | 1012.3 |
| 20260507122520 | 10 | 265 | 0.0 | 6.4 | 0.00 | 0.89 | 0.53 | 91 | 1012.2 |
| 20260507122024 | 10 | 290 | 1.6 | 8.0 | 0.00 | 0.89 | 0.53 | 91 | 1012.2 |
| 20260507121540 | 10 | 313 | 1.6 | 9.7 | 0.00 | 0.89 | 0.53 | 92 | 1012.2 |
| 20260507121024 | 10 | 0 | 3.2 | 9.7 | 0.00 | 0.89 | 0.53 | 92 | 1012.2 |
| 20260507120524 | 10 | 296 | 1.6 | 6.4 | 0.00 | 0.89 | 0.53 | 92 | 1012.3 |
| 20260507120043 | 10 | 275 | 0.0 | 6.4 | 0.00 | 0.89 | 0.53 | 93 | 1012.2 |
| 20260507115523 | 10 | 289 | 1.6 | 6.4 | 0.00 | 0.89 | 0.53 | 93 | 1012.2 |
| 20260507115028 | 10 | 0 | 0.0 | 6.4 | 0.00 | 0.89 | 0.53 | 93 | 1012.2 |
| 20260507114558 | 10 | 294 | 0.0 | 6.4 | 0.00 | 0.89 | 0.53 | 93 | 1012.2 |
| 20260507114024 | 10 | 290 | 3.2 | 6.4 | 0.00 | 0.89 | 0.53 | 93 | 1012.0 |
| 20260507113524 | 10 | 306 | 0.0 | 6.4 | 0.00 | 0.89 | 0.53 | 93 | 1012.1 |
| 20260507113037 | 10 | 285 | 1.6 | 6.4 | 0.00 | 0.89 | 0.53 | 93 | 1011.9 |
| 20260507112524 | 10 | 290 | 1.6 | 8.0 | 0.00 | 0.89 | 0.53 | 93 | 1011.8 |
| 20260507112021 | 10 | 277 | 1.6 | 9.7 | 0.00 | 0.89 | 0.53 | 93 | 1011.9 |
| 20260507111534 | 10 | 290 | 1.6 | 9.7 | 0.00 | 0.89 | 0.53 | 93 | 1011.7 |
| 20260507111023 | 10 | 290 | 3.2 | 6.4 | 0.00 | 0.89 | 0.53 | 93 | 1011.6 |
| 20260507110523 | 9 | 0 | 0.0 | 3.2 | 0.00 | 0.89 | 0.53 | 93 | 1011.5 |
| 20260507110043 | 9 | 0 | 0.0 | 3.2 | 0.00 | 0.89 | 0.53 | 93 | 1011.5 |
| 20260507105524 | 9 | 298 | 0.0 | 4.8 | 0.00 | 0.89 | 0.53 | 93 | 1011.3 |
| 20260507105021 | 9 | 0 | 0.0 | 4.8 | 0.00 | 0.89 | 0.53 | 93 | 1011.4 |
| 20260507104549 | 9 | 0 | 0.0 | 3.2 | 0.00 | 0.89 | 0.53 | 93 | 1011.3 |
| 20260507104026 | 9 | 0 | 0.0 | 3.2 | 0.00 | 0.89 | 0.53 | 93 | 1011.3 |
| 20260507103523 | 9 | 296 | 1.6 | 3.2 | 0.00 | 0.89 | 0.53 | 93 | 1011.3 |
| 20260507103040 | 9 | 290 | 0.0 | 3.2 | 0.00 | 0.89 | 0.53 | 93 | 1011.1 |
| 20260507102524 | 9 | 0 | 0.0 | 3.2 | 0.00 | 0.89 | 0.53 | 93 | 1010.9 |
| 20260507102025 | 9 | 0 | 0.0 | 1.6 | 0.00 | 0.89 | 0.53 | 93 | 1011.0 |
| 20260507101537 | 9 | 0 | 0.0 | 0.0 | 0.00 | 0.89 | 0.53 | 93 | 1010.7 |
| 20260507101023 | 9 | 0 | 0.0 | 0.0 | 0.00 | 0.89 | 0.53 | 93 | 1010.9 |
| 20260507100524 | 9 | 0 | 0.0 | 1.6 | 0.00 | 0.89 | 0.53 | 93 | 1010.9 |
| 20260507100038 | 9 | 0 | 0.0 | 1.6 | 0.00 | 0.89 | 0.53 | 93 | 1010.9 |
| 20260507095522 | 9 | 0 | 0.0 | 1.6 | 0.00 | 0.89 | 0.53 | 93 | 1010.9 |
| 20260507095022 | 9 | 0 | 0.0 | 1.6 | 0.00 | 0.89 | 0.53 | 93 | 1010.8 |
| 20260507094535 | 9 | 0 | 0.0 | 1.6 | 0.00 | 0.89 | 0.53 | 92 | 1010.7 |
| 20260507094022 | 9 | 0 | 0.0 | 1.6 | 0.00 | 0.89 | 0.53 | 93 | 1010.8 |
| 20260507093522 | 9 | 0 | 0.0 | 1.6 | 0.00 | 0.89 | 0.53 | 93 | 1010.8 |
| 20260507093040 | 9 | 0 | 0.0 | 6.4 | 0.00 | 0.89 | 0.53 | 93 | 1010.7 |
| 20260507092522 | 9 | 303 | 0.0 | 6.4 | 0.00 | 0.89 | 0.53 | 93 | 1010.6 |
| 20260507092023 | 9 | 278 | 0.0 | 4.8 | 0.00 | 0.89 | 0.53 | 93 | 1010.7 |
| 20260507091543 | 9 | 0 | 0.0 | 6.4 | 0.00 | 0.89 | 0.53 | 92 | 1010.6 |
| 20260507091024 | 9 | 0 | 0.0 | 6.4 | 0.00 | 0.89 | 0.53 | 92 | 1010.6 |
| 20260507090525 | 9 | 296 | 1.6 | 6.4 | 0.00 | 0.89 | 0.53 | 92 | 1010.5 |
| 20260507090037 | 9 | 294 | 0.0 | 4.8 | 0.00 | 0.89 | 0.53 | 92 | 1010.5 |
| 20260507085524 | 9 | 304 | 0.0 | 4.8 | 0.03 | 0.89 | 0.53 | 92 | 1010.4 |
| 20260507085024 | 9 | 0 | 1.6 | 6.4 | 0.03 | 0.89 | 0.53 | 92 | 1010.4 |
| 20260507084537 | 9 | 290 | 0.0 | 6.4 | 0.03 | 0.89 | 0.53 | 92 | 1010.4 |
| 20260507084025 | 9 | 292 | 0.0 | 6.4 | 0.03 | 0.89 | 0.53 | 92 | 1010.3 |
| 20260507083522 | 9 | 300 | 1.6 | 6.4 | 0.03 | 0.89 | 0.53 | 92 | 1010.4 |
| 20260507083035 | 9 | 304 | 0.0 | 6.4 | 0.03 | 0.89 | 0.53 | 92 | 1010.2 |
| 20260507082524 | 9 | 290 | 1.6 | 6.4 | 0.03 | 0.89 | 0.53 | 92 | 1010.3 |
| 20260507082026 | 10 | 0 | 0.0 | 6.4 | 0.03 | 0.89 | 0.53 | 92 | 1010.4 |
| 20260507081535 | 9 | 0 | 0.0 | 9.7 | 0.03 | 0.89 | 0.53 | 92 | 1010.5 |
| 20260507081022 | 10 | 295 | 0.0 | 11.3 | 0.03 | 0.89 | 0.53 | 92 | 1010.7 |
| 20260507080522 | 10 | 308 | 1.6 | 11.3 | 0.03 | 0.89 | 0.53 | 92 | 1010.5 |
| 20260507080042 | 10 | 296 | 1.6 | 12.9 | 0.03 | 0.89 | 0.53 | 92 | 1010.7 |
| 20260507075524 | 10 | 297 | 1.6 | 12.9 | 0.00 | 0.86 | 0.51 | 92 | 1010.8 |
| 20260507075024 | 10 | 293 | 4.8 | 12.9 | 0.00 | 0.86 | 0.51 | 92 | 1011.1 |
| 20260507074542 | 10 | 303 | 4.8 | 11.3 | 0.00 | 0.86 | 0.51 | 92 | 1011.1 |
| 20260507074023 | 10 | 0 | 1.6 | 11.3 | 0.03 | 0.86 | 0.51 | 92 | 1010.8 |
| 20260507073525 | 10 | 304 | 3.2 | 11.3 | 0.05 | 0.86 | 0.51 | 91 | 1010.8 |
| 20260507073042 | 10 | 320 | 3.2 | 12.9 | 0.05 | 0.86 | 0.51 | 91 | 1010.9 |
| 20260507072525 | 10 | 0 | 3.2 | 14.5 | 0.05 | 0.86 | 0.51 | 91 | 1010.7 |
| 20260507072024 | 10 | 263 | 4.8 | 14.5 | 0.05 | 0.86 | 0.51 | 91 | 1010.9 |
| 20260507071537 | 10 | 309 | 4.8 | 14.5 | 0.08 | 0.86 | 0.51 | 91 | 1010.8 |
| 20260507071021 | 10 | 277 | 3.2 | 14.5 | 0.08 | 0.86 | 0.51 | 91 | 1010.6 |
| 20260507070522 | 10 | 309 | 0.0 | 9.7 | 0.13 | 0.86 | 0.51 | 91 | 1010.6 |
| 20260507070037 | 10 | 316 | 3.2 | 9.7 | 0.13 | 0.86 | 0.51 | 91 | 1010.4 |
| 20260507065521 | 10 | 306 | 1.6 | 11.3 | 0.13 | 0.86 | 0.51 | 91 | 1010.5 |
| 20260507065021 | 10 | 0 | 3.2 | 11.3 | 0.15 | 0.86 | 0.51 | 90 | 1010.4 |
| 20260507064535 | 10 | 308 | 1.6 | 6.4 | 0.30 | 0.86 | 0.51 | 90 | 1010.6 |
| 20260507064023 | 10 | 0 | 1.6 | 11.3 | 0.38 | 0.84 | 0.48 | 90 | 1010.6 |
| 20260507063522 | 10 | 300 | 0.0 | 11.3 | 0.43 | 0.81 | 0.46 | 90 | 1010.4 |
| 20260507063053 | 10 | 277 | 4.8 | 11.3 | 0.43 | 0.81 | 0.46 | 89 | 1011.1 |
| 20260507062524 | 11 | 279 | 3.2 | 11.3 | 0.43 | 0.81 | 0.46 | 89 | 1010.8 |
| 20260507062023 | 11 | 273 | 1.6 | 12.9 | 0.41 | 0.79 | 0.43 | 89 | 1009.9 |
| 20260507061546 | 11 | 314 | 6.4 | 12.9 | 0.41 | 0.79 | 0.43 | 88 | 1010.7 |
| 20260507061023 | 11 | 0 | 0.0 | 4.8 | 0.41 | 0.79 | 0.43 | 88 | 1010.3 |
| 20260507060526 | 11 | 313 | 1.6 | 4.8 | 0.36 | 0.74 | 0.38 | 87 | 1010.8 |
| 20260507060043 | 11 | 291 | 0.0 | 4.8 | 0.36 | 0.74 | 0.38 | 86 | 1010.4 |
| 20260507055524 | 12 | 0 | 0.0 | 4.8 | 0.36 | 0.74 | 0.38 | 86 | 1009.9 |
| 20260507055023 | 12 | 207 | 0.0 | 16.1 | 0.30 | 0.69 | 0.33 | 85 | 1010.3 |
| 20260507054538 | 12 | 297 | 6.4 | 16.1 | 0.15 | 0.53 | 0.18 | 84 | 1011.2 |
| 20260507054024 | 12 | 225 | 4.8 | 16.1 | 0.08 | 0.46 | 0.10 | 84 | 1010.9 |
| 20260507053522 | 12 | 290 | 3.2 | 11.3 | 0.03 | 0.38 | 0.03 | 83 | 1010.4 |
| 20260507053042 | 12 | 296 | 0.0 | 4.8 | 0.03 | 0.38 | 0.03 | 83 | 1009.4 |
| 20260507052523 | 12 | 0 | 0.0 | 6.4 | 0.03 | 0.38 | 0.03 | 83 | 1009.3 |
| 20260507052024 | 12 | 312 | 1.6 | 6.4 | 0.03 | 0.38 | 0.03 | 83 | 1009.9 |
| 20260507051541 | 12 | 302 | 1.6 | 6.4 | 0.03 | 0.38 | 0.03 | 83 | 1009.8 |
| 20260507051025 | 12 | 304 | 3.2 | 6.4 | 0.03 | 0.38 | 0.03 | 83 | 1009.6 |
| 20260507050526 | 12 | 305 | 0.0 | 4.8 | 0.03 | 0.38 | 0.03 | 83 | 1009.6 |
| 20260507050042 | 13 | 302 | 1.6 | 6.4 | 0.03 | 0.38 | 0.03 | 84 | 1009.4 |
| 20260507045525 | 13 | 0 | 0.0 | 6.4 | 0.03 | 0.38 | 0.03 | 84 | 1009.2 |
| 20260507045025 | 13 | 300 | 1.6 | 6.4 | 0.03 | 0.38 | 0.03 | 84 | 1009.3 |
| 20260507044543 | 13 | 305 | 0.0 | 6.4 | 0.03 | 0.38 | 0.03 | 84 | 1009.3 |
| 20260507044025 | 13 | 0 | 0.0 | 6.4 | 0.03 | 0.38 | 0.03 | 84 | 1009.3 |
| 20260507043525 | 13 | 0 | 1.6 | 6.4 | 0.00 | 0.36 | 0.00 | 85 | 1009.6 |
| 20260507043042 | 13 | 0 | 3.2 | 8.0 | 0.00 | 0.36 | 0.00 | 85 | 1009.8 |
| 20260507042524 | 13 | 293 | 3.2 | 8.0 | 0.00 | 0.36 | 0.00 | 85 | 1009.8 |
| 20260507042024 | 13 | 305 | 1.6 | 12.9 | 0.00 | 0.36 | 0.00 | 85 | 1009.7 |
| 20260507041541 | 13 | 283 | 3.2 | 12.9 | 0.00 | 0.36 | 0.00 | 85 | 1009.7 |
| 20260507041026 | 13 | 290 | 4.8 | 12.9 | 0.00 | 0.36 | 0.00 | 85 | 1009.8 |
| 20260507040524 | 13 | 312 | 1.6 | 8.0 | 0.00 | 0.36 | 0.00 | 86 | 1009.6 |
| 20260507040044 | 13 | 296 | 1.6 | 6.4 | 0.00 | 0.36 | 0.00 | 85 | 1009.4 |
| 20260507035526 | 14 | 306 | 0.0 | 9.7 | 0.00 | 0.36 | 0.36 | 85 | 1009.5 |
| 20260507035026 | 14 | 0 | 1.6 | 9.7 | 0.00 | 0.36 | 0.36 | 85 | 1009.5 |
| 20260507034543 | 14 | 278 | 3.2 | 11.3 | 0.03 | 0.36 | 0.36 | 85 | 1009.7 |
| 20260507034026 | 15 | 292 | 1.6 | 11.3 | 0.13 | 0.36 | 0.36 | 84 | 1009.7 |
| 20260507033528 | 15 | 0 | 1.6 | 11.3 | 0.13 | 0.36 | 0.36 | 84 | 1009.4 |
| 20260507033045 | 15 | 281 | 1.6 | 11.3 | 0.13 | 0.36 | 0.36 | 84 | 1009.5 |
| 20260507032524 | 16 | 0 | 1.6 | 11.3 | 0.15 | 0.36 | 0.36 | 85 | 1009.4 |
| 20260507032024 | 17 | 319 | 3.2 | 11.3 | 0.15 | 0.36 | 0.36 | 87 | 1009.3 |
| 20260507031540 | 17 | 331 | 1.6 | 8.0 | 0.18 | 0.36 | 0.36 | 89 | 1009.1 |
| 20260507031026 | 17 | 93 | 0.0 | 1.6 | 0.23 | 0.36 | 0.36 | 89 | 1008.9 |
| 20260507030526 | 17 | 0 | 0.0 | 1.6 | 0.28 | 0.36 | 0.36 | 89 | 1009.0 |
| 20260507030043 | 17 | 0 | 0.0 | 6.4 | 0.30 | 0.36 | 0.36 | 89 | 1008.6 |
| 20260507025525 | 18 | 0 | 0.0 | 6.4 | 0.30 | 0.36 | 0.36 | 88 | 1008.8 |
| 20260507025025 | 18 | 157 | 0.0 | 6.4 | 0.30 | 0.36 | 0.36 | 88 | 1008.8 |
| 20260507024538 | 18 | 294 | 0.0 | 6.4 | 0.28 | 0.33 | 0.33 | 87 | 1008.9 |
| 20260507024024 | 18 | 190 | 0.0 | 4.8 | 0.18 | 0.23 | 0.23 | 87 | 1008.8 |